Powrót do katalogu

DMSP 5D-2 F14 DEB

AktywnyPO
NORAD 62941·DEBRIS·🇺🇸 United States

Wystrzelony Apr 4, 1997 z Vandenberg Space Force Base

Loading…

Następne Przeloty (najbliższe 24 godziny)

TLE

ŚwieżeSource: Space-Track

Epoka: Sep 14, 2026, 10:47 UTC

1 62941U 97012M   26257.44948006  .00026581  00000-0  91144-2 0  9991
2 62941  99.4857 332.1235 0063213 212.9086 146.8154 14.34955816521012

Śledź DMSP 5D-2 F14 DEB w czasie rzeczywistym z AllMySat

Download on the App Store